Location: ActonStarParty
(42.4766°N, 71.4538°W)
Time: 21:49:16
(UTC-04:00)

ISS - All Passes

Search period start: 01 September 2014 00:00
Search period end: 11 September 2014 00:00
Orbit: 414 x 419 km, 51.6° (Epoch: 01 September)

Date Brightness Start Highest point End Pass type
(mag) Time Alt. Az. Time Alt. Az. Time Alt. Az.
01 Sep - 09:02:29 10° SSE 09:04:16 14° SE 09:06:04 10° E daylight
01 Sep - 10:37:17 10° WSW 10:40:36 74° NNW 10:43:57 10° NE daylight
01 Sep - 12:15:10 10° WNW 12:17:46 21° NNW 12:20:23 10° NE daylight
01 Sep - 13:53:02 10° NW 13:55:23 18° N 13:57:44 10° NE daylight
01 Sep - 15:29:35 10° NW 15:32:46 41° NNE 15:35:57 10° E daylight
01 Sep - 17:06:30 10° WNW 17:09:25 28° SW 17:12:18 10° SSE daylight
02 Sep - 09:48:48 10° SW 09:52:05 65° SE 09:55:23 10° ENE daylight
02 Sep - 11:26:12 10° WNW 11:29:03 26° NNW 11:31:54 10° NE daylight
02 Sep - 13:04:21 10° NW 13:06:36 17° N 13:08:52 10° NE daylight
02 Sep - 14:41:08 10° NW 14:44:07 29° NNE 14:47:05 10° E daylight
02 Sep - 16:17:44 10° WNW 16:20:58 49° SW 16:24:11 10° SE daylight
03 Sep - 09:00:31 10° SSW 09:03:36 37° SE 09:06:42 10° ENE daylight
03 Sep - 10:37:16 10° W 10:40:21 34° NNW 10:43:26 10° NE daylight
03 Sep - 12:15:31 10° NW 12:17:48 17° N 12:20:05 10° NE daylight
03 Sep - 13:52:39 10° NW 13:55:23 23° NNE 13:58:07 10° ENE daylight
03 Sep - 15:29:06 10° WNW 15:32:27 85° SW 15:35:46 10° SE daylight
03 Sep - 17:08:02 10° WSW 17:08:40 10° SW 17:09:18 10° SW daylight
04 Sep - 08:12:32 10° S 08:15:09 22° SE 08:17:47 10° E daylight
04 Sep - 09:48:26 10° WSW 09:51:41 50° NNW 09:54:56 10° NE daylight
04 Sep - 11:26:33 10° NW 11:28:59 18° N 11:31:25 10° NE daylight
04 Sep - 13:04:06 10° NW 13:06:36 19° N 13:09:06 10° ENE daylight
04 Sep - 14:40:33 10° NW 14:43:51 58° NNE 14:47:08 10° ESE daylight
04 Sep - 16:17:56 10° W 16:20:17 18° SW 16:22:38 10° S daylight
05 Sep - 07:25:12 10° SSE 07:26:45 13° SE 07:28:17 10° ESE daylight
05 Sep - 08:59:43 10° WSW 09:03:02 81° NNW 09:06:23 10° NE daylight
05 Sep - 10:37:31 10° WNW 10:40:10 21° NNW 10:42:49 10° NE daylight
05 Sep - 12:15:26 10° NW 12:17:46 17° N 12:20:05 10° NE daylight
05 Sep - 13:52:01 10° NW 13:55:10 38° NNE 13:58:19 10° E daylight
05 Sep - 15:28:52 10° WNW 15:31:50 30° SW 15:34:48 10° SSE daylight
06 Sep - 08:11:10 10° SW 08:14:26 59° SE 08:17:43 10° ENE daylight
06 Sep - 09:48:28 10° W 09:51:22 27° NNW 09:54:15 10° NE daylight
06 Sep - 11:26:39 10° NW 11:28:54 17° N 11:31:09 10° NE daylight
06 Sep - 13:03:28 10° NW 13:06:25 28° NNE 13:09:21 10° E daylight
06 Sep - 14:40:02 10° WNW 14:43:18 53° SW 14:46:33 10° SE daylight
07 Sep - 07:22:50 10° SSW 07:25:52 34° SE 07:28:55 10° ENE daylight
07 Sep - 08:59:28 10° W 09:02:35 36° NNW 09:05:42 10° NE daylight
07 Sep - 10:37:42 10° NW 10:40:00 17° N 10:42:18 10° NE daylight
07 Sep - 12:14:54 10° NW 12:17:35 22° NNE 12:20:17 10° ENE daylight
07 Sep - 13:51:20 10° NW 13:54:41 88° NE 13:58:00 10° SE daylight
07 Sep - 15:29:45 10° WSW 15:30:56 12° SW 15:32:06 10° SSW daylight
08 Sep - 06:34:51 10° S 06:37:21 20° SE 06:39:51 10° E daylight
08 Sep - 08:10:33 10° WSW 08:13:50 54° NNW 08:17:06 10° NE daylight
08 Sep - 09:48:38 10° WNW 09:51:06 19° N 09:53:34 10° NE daylight
08 Sep - 11:26:15 10° NW 11:28:43 19° N 11:31:10 10° ENE daylight
08 Sep - 13:02:42 10° NW 13:05:59 54° NNE 13:09:15 10° ESE daylight
08 Sep - 14:39:58 10° W 14:42:27 20° SW 14:44:57 10° S daylight
09 Sep - 05:47:40 10° SSE 05:48:51 12° SE 05:50:03 10° ESE visible
09 Sep - 07:21:47 10° SW 07:25:06 88° NW 07:28:27 10° NE daylight
09 Sep - 08:59:30 10° WNW 09:02:12 22° NNW 09:04:53 10° NE daylight
09 Sep - 10:37:29 10° NW 10:39:47 17° N 10:42:05 10° NE daylight
09 Sep - 12:14:05 10° NW 12:17:12 36° NNE 12:20:19 10° E daylight
09 Sep - 13:50:52 10° WNW 13:53:54 33° SW 13:56:56 10° SSE daylight
10 Sep - 06:33:11 10° SW 06:36:26 54° SE 06:39:41 10° ENE daylight
10 Sep - 08:10:23 10° W 08:13:19 28° NNW 08:16:15 10° NE daylight
10 Sep - 09:48:34 10° NW 09:50:49 17° N 09:53:04 10° NE daylight
10 Sep - 11:25:27 10° NW 11:28:21 27° NNE 11:31:14 10° E daylight
10 Sep - 13:01:59 10° WNW 13:05:16 59° SW 13:08:32 10° SE daylight
